Total_Precipitation_Accumulation
1.26 1.14 0.76 0.40 0.25 0.14 0.08 0.06 0.04 0.01 0.00 0.01 0.01 0.00 0.00 0.00 0.00 0.00 0.00 0.00 0.00 0.01 0.01 0.01 0.01 0.03 0.04 0.05 0.06 0.07 0.08 0.09 0.12 0.15 0.16 0.15 0.16 0.19 0.21 0.22 0.23 0.22 0.18 0.16
1.20 0.84 0.40 0.30 0.29 0.25 0.18 0.12 0.07 0.03 0.01 0.02 0.01 0.00 0.00 0.00 0.00 0.00 0.00 0.00 0.00 0.00 0.00 0.00 0.01 0.02 0.02 0.04 0.05 0.06 0.07 0.08 0.09 0.10 0.12 0.17 0.24 0.29 0.33 0.32 0.30 0.28 0.26 0.24
0.84 0.50 0.35 0.41 0.43 0.39 0.26 0.15 0.09 0.06 0.04 0.03 0.02 0.01 0.00 0.00 0.00 0.00 0.00 0.00 0.00 0.00 0.00 0.00 0.01 0.01 0.01 0.02 0.04 0.05 0.06 0.07 0.08 0.11 0.16 0.21 0.25 0.25 0.24 0.21 0.20 0.25 0.30 0.31
0.77 0.45 0.45 0.53 0.46 0.38 0.31 0.14 0.13 0.11 0.13 0.09 0.05 0.03 0.00 0.00 0.00 0.00 0.00 0.00 0.00 0.00 0.00 0.00 0.00 0.01 0.01 0.01 0.02 0.03 0.03 0.03 0.04 0.07 0.10 0.13 0.15 0.14 0.14 0.18 0.22 0.27 0.29 0.31
0.79 0.50 0.51 0.60 0.42 0.33 0.28 0.18 0.20 0.21 0.21 0.19 0.10 0.06 0.01 0.00 0.00 0.00 0.00 0.00 0.00 0.00 0.00 0.00 0.00 0.01 0.00 0.01 0.01 0.01 0.02 0.02 0.03 0.03 0.04 0.08 0.11 0.12 0.14 0.15 0.18 0.21 0.22 0.24
0.61 0.54 0.57 0.53 0.39 0.36 0.33 0.37 0.39 0.38 0.44 0.39 0.12 0.08 0.03 0.00 0.00 0.00 0.00 0.00 0.00 0.00 0.00 0.00 0.00 0.00 0.00 0.00 0.00 0.01 0.01 0.01 0.02 0.02 0.02 0.04 0.06 0.09 0.10 0.10 0.12 0.15 0.17 0.17
0.81 0.64 0.55 0.55 0.65 0.61 0.63 0.86 1.02 0.87 0.73 0.34 0.07 0.07 0.03 0.00 0.00 0.00 0.00 0.00 0.00 0.00 0.00 0.00 0.00 0.00 0.00 0.00 0.00 0.00 0.00 0.01 0.01 0.01 0.01 0.02 0.04 0.08 0.10 0.10 0.11 0.13 0.13 0.13
0.83 0.74 0.49 0.57 0.78 0.79 0.68 0.81 0.87 0.60 0.34 0.13 0.05 0.04 0.01 0.00 0.00 0.00 0.00 0.00 0.00 0.00 0.00 0.00 0.00 0.00 0.00 0.00 0.00 0.00 0.00 0.00 0.01 0.01 0.01 0.01 0.03 0.05 0.06 0.08 0.09 0.10 0.12 0.15
0.57 0.53 0.33 0.40 0.55 0.61 0.65 0.65 0.52 0.57 0.36 0.19 0.08 0.03 0.01 0.00 0.00 0.00 0.00 0.00 0.00 0.00 0.00 0.00 0.00 0.00 0.00 0.00 0.00 0.00 0.00 0.01 0.01 0.01 0.01 0.01 0.02 0.03 0.05 0.06 0.07 0.08 0.10 0.12
0.49 0.61 0.39 0.43 0.63 0.71 0.65 0.53 0.58 0.87 0.61 0.29 0.10 0.03 0.01 0.00 0.00 0.00 0.00 0.00 0.00 0.00 0.00 0.00 0.00 0.00 0.00 0.00 0.00 0.00 0.00 0.01 0.01 0.02 0.02 0.02 0.02 0.03 0.05 0.05 0.05 0.06 0.07 0.09
0.47 0.72 0.56 0.57 0.73 0.67 0.64 0.71 0.69 0.67 0.47 0.37 0.18 0.04 0.01 0.01 0.01 0.00 0.00 0.00 0.00 0.00 0.00 0.00 0.00 0.00 0.00 0.00 0.00 0.00 0.01 0.01 0.01 0.01 0.01 0.02 0.02 0.03 0.03 0.04 0.05 0.06 0.06 0.06
0.41 0.75 0.65 0.48 0.42 0.45 0.52 0.51 0.58 0.73 0.52 0.39 0.27 0.08 0.01 0.01 0.01 0.01 0.01 0.01 0.01 0.00 0.00 0.00 0.00 0.00 0.00 0.01 0.01 0.01 0.02 0.02 0.02 0.01 0.01 0.02 0.02 0.02 0.03 0.04 0.05 0.05 0.05 0.05
0.39 0.74 0.80 0.58 0.51 0.56 0.60 0.48 0.46 0.66 0.83 0.63 0.42 0.12 0.02 0.02 0.02 0.02 0.03 0.03 0.03 0.02 0.01 0.01 0.01 0.01 0.01 0.02 0.02 0.02 0.02 0.02 0.02 0.02 0.03 0.03 0.03 0.03 0.04 0.06 0.06 0.05 0.05 0.05
0.59 0.79 0.70 0.53 0.46 0.54 0.53 0.42 0.52 0.97 1.13 0.60 0.27 0.10 0.05 0.04 0.06 0.07 0.07 0.06 0.05 0.04 0.04 0.03 0.02 0.02 0.02 0.02 0.02 0.02 0.02 0.02 0.03 0.03 0.04 0.04 0.05 0.06 0.06 0.06 0.06 0.06 0.05 0.06
0.60 0.83 0.62 0.38 0.29 0.44 0.46 0.44 0.54 0.77 0.72 0.62 0.29 0.14 0.10 0.09 0.12 0.12 0.10 0.08 0.07 0.06 0.05 0.05 0.04 0.04 0.04 0.03 0.03 0.02 0.02 0.02 0.03 0.04 0.05 0.06 0.07 0.06 0.07 0.06 0.06 0.06 0.06 0.06
0.45 0.68 0.65 0.44 0.27 0.37 0.42 0.39 0.41 0.45 0.47 0.45 0.31 0.24 0.13 0.12 0.14 0.13 0.10 0.09 0.08 0.06 0.06 0.05 0.04 0.04 0.04 0.04 0.05 0.05 0.04 0.04 0.04 0.06 0.07 0.07 0.07 0.07 0.07 0.07 0.08 0.09 0.10 0.10
0.32 0.53 0.71 0.49 0.30 0.39 0.43 0.37 0.39 0.37 0.33 0.34 0.36 0.27 0.17 0.17 0.17 0.15 0.11 0.09 0.08 0.05 0.04 0.03 0.03 0.04 0.03 0.03 0.03 0.03 0.04 0.05 0.05 0.06 0.08 0.08 0.08 0.08 0.08 0.10 0.15 0.18 0.20 0.22
0.19 0.42 0.67 0.46 0.34 0.46 0.34 0.27 0.28 0.30 0.27 0.29 0.27 0.20 0.15 0.15 0.17 0.16 0.12 0.08 0.06 0.04 0.03 0.02 0.02 0.02 0.02 0.02 0.02 0.02 0.03 0.04 0.05 0.07 0.10 0.12 0.13 0.17 0.20 0.20 0.25 0.31 0.35 0.37
0.09 0.31 0.54 0.43 0.33 0.24 0.18 0.18 0.21 0.27 0.27 0.24 0.17 0.12 0.10 0.11 0.16 0.16 0.13 0.09 0.06 0.04 0.04 0.04 0.03 0.03 0.02 0.03 0.03 0.04 0.05 0.06 0.06 0.08 0.11 0.14 0.17 0.24 0.30 0.31 0.34 0.38 0.43 0.46
0.07 0.20 0.44 0.38 0.31 0.16 0.09 0.06 0.08 0.17 0.25 0.16 0.14 0.13 0.13 0.14 0.17 0.15 0.12 0.10 0.10 0.08 0.06 0.06 0.07 0.08 0.09 0.09 0.10 0.11 0.11 0.15 0.17 0.18 0.22 0.26 0.31 0.37 0.40 0.40 0.39 0.38 0.36 0.35
0.13 0.23 0.33 0.30 0.25 0.05 0.03 0.03 0.05 0.14 0.17 0.07 0.06 0.08 0.11 0.10 0.09 0.11 0.09 0.08 0.10 0.11 0.11 0.11 0.11 0.13 0.15 0.15 0.16 0.17 0.18 0.24 0.30 0.33 0.35 0.35 0.37 0.38 0.38 0.35 0.32 0.28 0.23 0.19
0.05 0.09 0.10 0.12 0.15 0.06 0.02 0.03 0.05 0.06 0.05 0.05 0.06 0.07 0.08 0.09 0.08 0.08 0.10 0.09 0.08 0.08 0.09 0.11 0.13 0.15 0.17 0.20 0.24 0.25 0.28 0.31 0.32 0.32 0.32 0.31 0.30 0.27 0.26 0.24 0.20 0.15 0.12 0.08
0.04 0.04 0.04 0.04 0.03 0.02 0.02 0.02 0.02 0.02 0.03 0.04 0.06 0.07 0.07 0.07 0.08 0.06 0.05 0.06 0.06 0.06 0.08 0.11 0.14 0.17 0.19 0.21 0.24 0.26 0.26 0.25 0.25 0.24 0.23 0.20 0.16 0.14 0.13 0.10 0.08 0.06 0.05 0.03
0.08 0.06 0.06 0.04 0.02 0.01 0.02 0.02 0.02 0.02 0.01 0.01 0.02 0.04 0.07 0.08 0.08 0.07 0.04 0.04 0.04 0.04 0.05 0.06 0.08 0.10 0.11 0.12 0.15 0.16 0.15 0.13 0.13 0.12 0.12 0.09 0.06 0.05 0.04 0.03 0.02 0.01 0.01 0.01
0.11 0.10 0.08 0.05 0.03 0.02 0.02 0.02 0.02 0.01 0.01 0.01 0.01 0.02 0.03 0.04 0.04 0.05 0.05 0.04 0.04 0.04 0.03 0.03 0.03 0.04 0.05 0.05 0.06 0.06 0.06 0.05 0.04 0.03 0.03 0.02 0.02 0.01 0.01 0.01 0.01 0.00 0.00 0.00
0.02 0.04 0.07 0.07 0.04 0.04 0.03 0.02 0.02 0.01 0.01 0.01 0.01 0.01 0.01 0.02 0.02 0.02 0.02 0.02 0.02 0.03 0.03 0.02 0.02 0.02 0.02 0.02 0.02 0.02 0.02 0.01 0.01 0.01 0.01 0.00 0.00 0.00 0.00 0.00 0.00 0.01 0.00 0.00